Wind_Speed
39 39 41 32 23 17 21 33 36 30 27 15 23 21 20 38 29 28 27 26 21 20 27 25 22 20 12 5 5 4 5 7 11 9 3 4 8 10 12 12 14 15 13
36 38 41 27 25 17 18 33 35 33 29 24 24 16 22 21 16 25 18 16 21 22 23 21 20 17 11 7 6 4 7 12 6 7 3 3 5 7 8 9 12 11 9
32 37 39 28 27 20 23 32 29 28 25 17 18 21 14 15 13 8 3 16 14 23 24 22 18 16 10 11 4 7 12 7 5 3 0 1 3 5 8 8 7 7 7
25 31 36 34 22 25 22 28 24 17 14 6 7 16 13 13 14 14 15 18 19 17 18 16 13 13 11 6 9 10 9 7 4 2 1 0 2 5 5 6 6 7 6
18 24 30 33 23 15 21 20 19 17 14 7 7 14 12 8 16 20 12 16 13 11 12 13 14 14 12 9 10 10 10 8 6 6 5 2 1 3 3 4 5 6 8
12 16 22 27 29 21 11 14 17 22 16 14 10 8 12 12 11 16 15 18 17 14 15 15 14 13 15 19 14 12 11 8 8 6 4 3 5 7 8 10 9 9 10
8 10 14 18 22 25 21 11 9 14 10 8 5 4 6 7 8 14 13 17 16 15 16 14 15 17 16 15 13 11 10 9 9 7 6 7 9 10 12 13 13 13 14
4 6 7 10 13 17 18 19 16 9 3 1 2 7 9 12 13 15 15 15 14 14 16 18 15 13 16 15 14 14 13 12 10 9 11 13 15 17 18 19 20 19 21
4 2 3 4 5 8 10 12 13 12 9 7 5 4 4 6 4 4 13 19 19 18 16 15 15 16 14 14 15 15 13 12 13 15 18 19 20 21 22 24 24 24 26
9 6 3 2 1 2 3 5 5 7 8 8 7 6 6 6 6 5 5 7 10 12 14 13 12 13 14 15 15 14 15 19 21 22 24 25 27 27 28 28 28 29 29
12 10 8 5 4 2 3 4 4 5 5 4 4 5 5 5 6 6 7 7 8 10 11 12 13 16 17 19 20 22 24 26 28 30 31 31 32 32 32 32 34 34 33
15 13 11 9 8 7 6 5 5 6 6 7 8 8 8 8 8 9 9 10 12 14 17 19 21 23 23 25 27 29 31 33 35 36 36 36 36 37 38 39 39 39 38
17 16 14 13 12 11 10 9 9 8 8 8 10 11 13 14 15 16 17 18 20 21 23 25 27 28 30 32 34 35 35 35 36 38 38 39 40 41 41 42 42 42 43
19 19 18 17 16 14 13 13 13 12 13 13 13 13 14 14 16 18 20 22 24 26 27 29 31 32 34 35 36 37 38 39 40 41 42 43 43 44 45 46 46 47 47
17 17 19 20 20 19 17 17 17 17 17 17 17 18 19 21 22 23 24 25 27 28 30 32 33 35 37 38 39 41 42 43 44 45 46 46 48 49 50 51 52 51 53
17 18 22 23 21 17 15 16 16 17 18 19 19 20 21 20 21 23 26 28 30 32 33 35 37 38 39 42 44 46 48 49 50 52 54 54 54 54 55 58 59 58 58
21 22 20 20 19 17 17 18 17 18 18 17 18 18 20 22 24 26 27 30 32 33 35 38 40 42 43 45 48 50 50 50 51 52 53 52 51 51 51 52 53 53 56
22 21 23 22 22 22 22 22 22 24 23 23 24 25 26 27 28 29 31 33 35 37 38 39 39 40 41 41 42 44 47 48 50 51 51 51 50 51 53 54 54 56 57
22 22 20 21 24 25 26 26 25 26 27 28 29 29 30 31 33 34 35 34 34 36 38 40 42 44 45 46 46 46 48 51 52 51 52 53 54 56 59 61 61 61 60
24 24 24 24 24 26 27 28 27 27 28 29 31 32 34 36 37 37 38 38 39 40 41 41 44 47 49 51 51 52 52 54 56 59 60 60 59 59 59 59 61 62 63
26 25 26 27 28 29 30 30 30 30 32 33 35 36 38 39 40 39 40 40 41 43 45 44 44 44 47 50 51 52 54 55 57 58 58 58 59 60 61 62 63 65 66
32 32 33 32 32 33 33 33 33 35 37 38 39 39 39 39 37 37 40 43 44 46 47 49 51 52 54 55 55 56 56 57 58 58 60 61 63 64 65 66 66 66 67
37 37 37 37 37 36 35 36 36 38 39 39 40 37 36 39 42 43 43 44 45 46 48 49 51 52 55 57 57 59 59 60 62 64 63 62 62 64 65 66 67 67 68
35 33 35 35 36 37 37 39 38 37 36 36 38 40 40 40 42 43 45 47 48 50 50 51 52 54 55 57 57 59 59 60 62 63 65 66 66 67 69 70 71 72 74
35 37 39 40 41 40 38 38 37 38 38 38 39 41 42 43 45 46 47 49 49 50 51 51 53 55 57 59 61 61 62 63 63 65 66 67 68 69 71 72 74 75 77
35 38 38 39 39 39 40 40 40 39 40 42 43 44 46 47 47 46 46 47 48 50 51 52 54 55 56 56 56 57 60 61 61 63 65 66 65 64 64 63 63 62 62
Wind_Direction
14 9 11 7 14 41 71 113 113 111 100 143 180 172 124 135 136 129 137 157 170 178 187 184 181 186 192 194 193 226 289 303 304 301 287 321 349 356 2 355 6 8 4
15 18 16 14 21 44 81 115 114 101 106 105 91 108 67 59 88 137 128 140 167 177 170 172 178 185 194 197 205 292 290 287 261 242 252 8 23 18 17 23 24 357 351
13 24 23 28 24 51 101 116 112 109 114 100 112 113 93 71 71 123 135 144 158 170 172 176 185 197 192 202 258 275 275 236 199 208 335 53 17 21 27 26 17 357 353
19 21 32 36 41 57 96 96 101 108 119 138 131 141 133 134 148 155 160 162 172 171 176 184 188 186 191 223 249 241 214 196 196 200 209 31 16 31 7 0 2 359 344
26 26 31 40 53 60 78 107 108 126 130 151 155 160 156 183 163 171 199 181 188 199 195 197 202 207 220 212 223 212 204 190 178 159 122 95 343 306 303 319 331 337 320
23 34 32 40 49 66 82 88 126 144 147 138 147 162 178 186 181 186 174 184 195 202 190 193 207 224 233 233 224 206 196 189 171 178 203 235 274 301 322 319 309 315 303
38 37 43 40 46 59 71 91 137 154 158 166 166 188 209 212 198 199 202 199 197 203 211 225 233 248 228 216 212 201 198 198 211 214 249 277 285 284 290 286 286 289 287
9 45 51 55 50 51 65 69 71 89 129 178 234 256 248 238 232 219 210 215 221 227 232 228 210 210 207 205 199 203 206 213 224 248 260 266 271 274 276 278 280 283 283
289 347 43 63 69 70 63 77 90 87 98 109 109 112 101 82 93 171 211 218 214 211 204 208 218 216 214 210 213 218 222 238 253 261 265 271 273 272 274 274 280 281 281
274 272 289 336 39 119 137 119 94 97 107 110 112 112 117 124 136 153 171 170 180 205 216 220 224 223 226 235 239 242 251 256 259 265 270 274 275 275 273 273 271 273 275
269 266 268 276 292 290 222 212 198 182 180 175 177 175 173 169 174 183 193 197 207 222 228 230 238 244 248 252 257 256 259 263 266 268 271 273 273 272 271 271 271 272 273
264 267 264 265 271 270 277 272 258 246 243 248 243 240 244 247 247 247 240 238 239 239 242 247 251 256 262 264 264 264 267 269 269 271 273 274 274 274 274 274 275 274 273
260 266 265 268 269 262 257 265 270 268 264 261 260 262 267 269 264 261 260 261 261 260 260 261 264 267 268 269 269 269 269 269 269 269 269 269 270 270 272 274 275 277 278
251 257 267 266 260 257 258 262 264 263 265 266 265 264 265 264 263 263 265 267 268 270 271 271 271 271 271 271 271 271 271 271 271 271 272 272 273 274 274 273 273 273 274
258 254 262 265 260 251 245 254 262 267 266 269 269 268 267 268 269 271 273 274 276 276 276 275 274 274 274 274 275 275 274 273 272 271 271 270 269 270 271 272 273 273 273
256 259 274 271 262 258 256 259 266 270 269 269 269 271 278 285 290 292 292 291 288 286 286 287 288 288 288 286 284 283 281 277 275 276 277 280 282 283 283 281 278 277 281
268 262 267 273 258 253 256 258 261 265 267 271 274 276 277 280 282 283 282 283 284 285 285 286 286 286 285 286 285 284 285 284 281 280 279 279 281 282 281 280 280 279 281
271 273 269 264 266 271 271 269 272 273 271 269 270 273 274 275 276 277 279 283 285 286 288 289 291 292 290 289 289 290 289 288 287 287 286 285 285 285 285 286 286 285 285
253 257 262 267 267 265 266 268 269 271 273 275 276 279 280 281 282 283 283 284 287 287 288 290 292 294 293 294 294 294 295 294 291 287 285 285 286 287 288 287 287 287 288
249 255 258 260 263 264 265 265 265 268 272 274 277 277 280 283 284 285 288 291 294 294 294 294 294 294 294 293 292 293 293 293 291 288 291 294 293 292 291 291 291 290 289
254 254 256 260 264 265 266 267 270 273 274 275 276 277 279 282 285 287 290 292 293 296 296 296 295 295 294 294 293 293 293 292 293 293 295 295 294 294 294 294 293 291 290
259 262 263 264 265 267 270 273 275 276 277 277 279 281 283 285 287 289 290 290 291 293 294 295 296 295 296 297 297 297 297 297 297 296 295 295 295 294 293 292 292 291 290
260 261 264 267 269 268 267 268 271 273 275 279 280 280 283 286 288 290 292 292 293 293 294 295 295 294 295 296 297 297 298 298 299 298 296 295 293 294 295 294 293 292 291
269 271 271 268 266 266 269 270 271 273 273 274 278 281 283 285 287 288 289 289 291 292 294 296 297 297 296 296 296 297 298 298 297 297 297 297 295 295 294 293 292 291 290
269 269 266 267 265 266 267 267 267 271 274 278 281 282 284 285 287 289 290 291 292 294 296 296 296 296 297 297 296 297 296 295 295 294 295 297 298 298 298 298 297 297 296
264 269 273 273 271 271 269 271 273 275 277 280 281 283 286 287 288 289 291 292 294 295 295 294 294 294 295 294 295 296 297 299 300 300 301 302 303 305 308 310 313 314 313
Height
5658 5648 5638 5629 5622 5615 5611 5609 5612 5617 5621 5627 5633 5641 5648 5653 5659 5665 5673 5679 5684 5687 5692 5697 5702 5706 5710 5712 5714 5716 5715 5716 5716 5714 5715 5714 5713 5710 5708 5707 5704 5701 5700
5664 5655 5645 5637 5630 5624 5620 5620 5624 5628 5633 5640 5646 5651 5652 5658 5664 5670 5675 5680 5684 5689 5692 5696 5702 5707 5707 5710 5712 5711 5713 5714 5714 5715 5712 5710 5709 5708 5706 5705 5703 5702 5700
5670 5661 5653 5645 5639 5635 5632 5631 5635 5639 5644 5648 5651 5655 5659 5663 5669 5674 5677 5682 5687 5691 5693 5697 5702 5705 5706 5708 5707 5710 5710 5711 5712 5711 5709 5709 5709 5708 5705 5704 5702 5701 5701
5676 5668 5662 5654 5651 5645 5645 5642 5644 5649 5654 5658 5658 5661 5664 5668 5672 5677 5682 5685 5688 5691 5694 5698 5700 5702 5703 5703 5706 5707 5708 5708 5708 5707 5708 5708 5708 5706 5705 5703 5701 5700 5699
5680 5675 5670 5664 5659 5658 5657 5656 5654 5657 5659 5662 5665 5668 5671 5673 5676 5679 5683 5686 5688 5691 5693 5695 5698 5699 5701 5702 5703 5704 5704 5704 5704 5705 5706 5706 5707 5705 5703 5702 5699 5697 5697
5683 5680 5676 5672 5667 5664 5665 5663 5664 5665 5667 5668 5669 5671 5674 5676 5678 5680 5683 5686 5688 5689 5691 5694 5695 5696 5698 5700 5701 5700 5702 5702 5704 5704 5703 5703 5704 5703 5701 5700 5698 5695 5694
5685 5683 5681 5678 5675 5672 5669 5670 5671 5670 5670 5672 5673 5674 5676 5677 5679 5680 5683 5684 5686 5688 5691 5693 5693 5695 5696 5698 5699 5700 5701 5702 5702 5701 5701 5701 5700 5700 5698 5696 5694 5691 5689
5685 5685 5684 5682 5680 5678 5676 5674 5674 5673 5673 5674 5675 5676 5676 5677 5678 5681 5683 5685 5687 5688 5689 5690 5691 5692 5694 5695 5695 5698 5698 5699 5699 5698 5697 5697 5696 5695 5694 5692 5689 5687 5685
5685 5685 5684 5684 5683 5683 5681 5680 5680 5679 5678 5679 5678 5678 5678 5677 5677 5678 5680 5682 5684 5685 5687 5690 5691 5692 5693 5694 5696 5697 5696 5697 5697 5695 5694 5692 5691 5690 5688 5686 5684 5681 5678
5684 5684 5684 5684 5684 5684 5684 5684 5683 5682 5683 5683 5682 5683 5683 5683 5683 5684 5685 5684 5685 5688 5689 5691 5692 5693 5693 5694 5695 5695 5694 5694 5693 5691 5689 5687 5686 5684 5682 5679 5676 5674 5671
5681 5682 5682 5682 5682 5683 5684 5684 5684 5684 5684 5685 5685 5685 5684 5685 5685 5687 5687 5686 5686 5687 5688 5689 5690 5692 5692 5691 5691 5690 5689 5688 5687 5685 5683 5681 5679 5676 5673 5671 5668 5666 5662
5677 5678 5679 5680 5681 5681 5681 5681 5682 5682 5683 5683 5682 5682 5683 5683 5683 5684 5684 5684 5685 5686 5687 5687 5688 5688 5687 5685 5685 5684 5683 5681 5679 5677 5675 5672 5670 5667 5664 5662 5659 5656 5653
5672 5674 5675 5676 5677 5678 5678 5679 5679 5679 5679 5679 5680 5680 5680 5680 5680 5680 5680 5680 5681 5681 5681 5682 5682 5681 5680 5679 5678 5676 5674 5672 5670 5667 5664 5661 5659 5656 5653 5651 5648 5646 5643
5667 5668 5669 5670 5671 5673 5674 5675 5675 5676 5676 5676 5676 5676 5676 5676 5676 5676 5676 5676 5676 5676 5675 5674 5673 5672 5671 5670 5668 5666 5664 5662 5659 5656 5653 5651 5648 5646 5642 5638 5635 5632 5630
5662 5663 5664 5665 5665 5666 5667 5668 5669 5669 5670 5671 5672 5672 5671 5671 5671 5670 5670 5669 5669 5668 5667 5666 5665 5663 5661 5660 5657 5655 5653 5650 5648 5645 5642 5639 5635 5632 5628 5625 5621 5618 5615
5656 5659 5660 5659 5660 5660 5661 5662 5662 5663 5663 5663 5664 5664 5665 5664 5663 5663 5662 5662 5661 5660 5658 5656 5654 5652 5650 5648 5646 5642 5639 5636 5633 5631 5628 5624 5621 5617 5614 5610 5606 5603 5600
5651 5651 5652 5655 5655 5655 5656 5656 5656 5657 5657 5656 5656 5656 5657 5657 5656 5655 5653 5652 5651 5650 5649 5647 5645 5642 5639 5636 5633 5631 5628 5625 5622 5618 5614 5610 5606 5602 5599 5595 5591 5588 5585
5644 5645 5647 5647 5649 5650 5651 5651 5652 5652 5651 5651 5649 5649 5648 5647 5645 5644 5643 5642 5641 5639 5637 5636 5634 5631 5628 5624 5621 5618 5615 5610 5607 5603 5600 5596 5592 5588 5584 5580 5576 5573 5569
5634 5635 5638 5640 5641 5641 5642 5643 5643 5643 5644 5643 5642 5641 5640 5639 5638 5636 5634 5632 5630 5628 5625 5623 5621 5618 5616 5613 5609 5604 5600 5598 5594 5589 5585 5581 5577 5573 5569 5565 5560 5556 5552
5626 5628 5629 5630 5631 5632 5633 5633 5633 5634 5633 5633 5632 5632 5630 5629 5627 5626 5625 5623 5621 5618 5615 5611 5609 5606 5603 5600 5596 5591 5587 5583 5579 5575 5571 5566 5561 5557 5552 5547 5543 5539 5534
5619 5619 5620 5621 5623 5624 5624 5624 5624 5624 5624 5623 5622 5621 5621 5620 5618 5615 5613 5609 5608 5605 5604 5600 5597 5593 5590 5587 5583 5578 5573 5568 5564 5559 5554 5549 5545 5540 5535 5530 5525 5520 5516
5608 5610 5611 5612 5613 5614 5614 5614 5614 5613 5613 5612 5611 5610 5609 5608 5606 5604 5602 5599 5596 5593 5590 5587 5584 5580 5577 5573 5569 5565 5560 5555 5549 5544 5539 5534 5528 5523 5518 5513 5507 5502 5496
5598 5599 5601 5602 5603 5603 5603 5603 5603 5602 5602 5602 5601 5599 5598 5596 5594 5592 5590 5587 5584 5580 5577 5573 5570 5567 5564 5561 5556 5551 5546 5540 5535 5530 5523 5517 5511 5506 5499 5493 5487 5481 5475
5588 5589 5591 5592 5592 5593 5593 5593 5592 5591 5591 5590 5589 5588 5586 5584 5582 5579 5577 5575 5572 5569 5565 5561 5557 5554 5550 5546 5541 5536 5530 5523 5518 5511 5505 5499 5492 5486 5480 5472 5466 5458 5450
5578 5580 5580 5580 5581 5581 5581 5581 5580 5580 5579 5579 5578 5577 5574 5572 5570 5567 5565 5562 5559 5555 5552 5548 5544 5540 5536 5531 5526 5519 5512 5506 5500 5493 5487 5480 5473 5466 5458 5450 5442 5433 5424
5563 5566 5567 5569 5570 5571 5571 5570 5569 5568 5569 5567 5565 5563 5561 5559 5556 5553 5550 5548 5545 5543 5538 5534 5530 5526 5521 5515 5508 5502 5496 5490 5484 5477 5470 5462 5454 5446 5438 5430 5421 5412 5402